Погода в Редкино

Россия / Тверская область     56°38′59″N   36°17′40″E
темп.,
°C
ветер,
м/с
пор.,
м/с
влажн.,
%
обл.,
%
осадки,
мм/ч
давл.,
гПа
погр.,
м
10 мая, пн
пн1000:00+3сз35740 0.0 102272
03:00+2ссз22770 0.0 102525
06:00+3с227285 0.0 102658
09:00+9с23475 0.0 1027505
12:00+13с34391 0.0 10271260
15:00+14ссв23365 0.0 10271489
18:00+14св23465 0.0 1027730
21:00+8в22654 0.0 102818
11 мая, вт
вт1100:00+6в22735 0.0 102811
03:00+4в227350 0.0 103010
06:00+6в237492 0.0 103074
09:00+12всв3555100 0.0 1029470
12:00+16всв454294 0.0 10281034
15:00+18всв453984 0.0 10271161
18:00+17всв365343 0.0 1027376
21:00+11в34784 0.0 102760
12 мая, ср
ср1200:00+10вюв36870 0.0 102786
03:00+9юв229524 0.0 102726
06:00+11в11958 0.0 102840
09:00+16всв347826 0.0 1027514
12:00+21всв585914 0.0 10241384
15:00+21в6106151 1.3 10221565
18:00+18в71377100 1.9 10201148
21:00+15вюв7138546 2.9 1020922
13 мая, чт
чт1300:00+8ююв39935 0.1 1023342
03:00+6вюв359633 0.1 1023110
06:00+8в389110 0.0 1022221
09:00+13вюв597092 0.0 1020560
12:00+17вюв576798 0.0 10191257
15:00+17вюв4568100 0.1 10181119
18:00+16вюв4576100 0.1 1017750
21:00+12вюв3494100 0.2 101773
14 мая, пт
пт1400:00+10юв2396100 0.0 101741
03:00+9ю2294100 0.0 101715
06:00+10ююв23895 0.0 101766
09:00+16юв35690 0.0 1017600
12:00+20ю4652100 0.0 10161830
15:00+20ююв465897 0.5 10161353
18:00+19юв476698 0.8 1014968
21:00+14вюв36955 0.9 1013138